{"data":{"norad_id":64757,"epoch":"2026-09-20T21:01:57.828864Z","epoch_age_seconds":95078,"freshness":"FRESH","line1":"1 64757U 25147C   26263.87636376  .00022017  00000+0  66058-3 0  9992","line2":"2 64757  53.1597  52.0260 0000824  69.9848 290.1243 15.34412975 68628","mean_motion":15.34412975,"eccentricity":8.24e-5,"inclination_deg":53.1597,"raan_deg":52.026,"arg_perigee_deg":69.9848,"mean_anomaly_deg":290.1243,"bstar":0.00066058,"rev_number":6862,"period_min":93.846964504455,"perigee_km":462.10099398639,"apogee_km":463.2283581026,"semimajor_km":6840.8016760445,"source":"CELESTRAK","updated_at":"2026-09-21T09:00:35.436156Z"}}